Date,TemperatureHighF,TemperatureAvgF,TemperatureLowF,DewpointHighF,DewpointAvgF,DewpointLowF,HumidityHigh,HumidityAvg,HumidityLow,PressureMaxIn,PressureMinIn,WindSpeedMaxMPH,WindSpeedAvgMPH,GustSpeedMaxMPH,PrecipitationSumIn
2013-1-1,45.8,40.6,33.7,45.0,38.5,29.0,98,92,77,0.00,0.00,5,1,6,0.29
2013-1-2,49.7,45.7,41.8,47.0,42.5,36.0,99,89,67,32.16,0.00,8,1,11,0.06
2013-1-3,43.0,39.3,31.5,39.0,34.9,26.0,94,84,67,32.16,32.16,4,1,8,0.00
2013-1-4,50.5,34.3,22.4,29.0,23.3,19.0,94,68,33,32.16,32.16,12,3,16,0.00
2013-1-5,49.4,34.9,21.6,35.0,24.2,19.0,91,68,40,32.16,32.16,10,2,16,0.01
2013-1-6,56.0,42.6,35.7,41.0,36.4,30.0,97,80,55,32.28,21.40,10,1,16,0.01
2013-1-7,49.7,39.0,25.5,33.0,28.7,23.0,91,68,47,32.21,32.21,8,2,14,0.00
2013-1-8,51.8,34.4,21.2,39.0,29.3,20.0,95,83,61,32.21,32.21,4,1,5,0.00
2013-1-9,57.5,47.1,36.8,51.0,42.7,34.0,94,85,72,32.21,32.21,5,1,7,0.01
2013-1-10,63.7,52.1,42.9,54.0,46.2,39.0,99,82,57,32.21,32.21,5,1,7,0.00
2013-1-11,52.2,47.0,45.0,47.0,44.6,39.0,98,92,61,32.21,32.21,5,1,9,0.29
2013-1-12,66.4,54.1,47.6,62.0,53.1,47.0,100,96,85,32.21,32.12,3,0,5,0.02
2013-1-13,71.8,59.3,48.8,66.0,56.2,49.0,100,90,69,32.12,21.23,15,2,20,0.01
2013-1-14,63.5,60.5,54.7,63.0,60.0,54.0,99,98,92,32.18,0.00,4,0,5,0.50
2013-1-15,62.8,49.6,41.8,63.0,49.0,41.0,99,98,97,32.19,0.00,9,2,15,0.77
2013-1-16,48.9,44.3,41.5,48.0,43.7,41.0,99,98,97,32.19,31.83,3,0,5,0.31
2013-1-17,50.5,35.5,39.9,50.0,9.1,-99.9,99,73,95,32.19,31.74,14,-259,21,0.94
2013-1-18,47.4,15.9,31.5,31.2,-51.3,-99.9,88,23,46,26.12,-32.77,7,-622,8,0.22
2013-1-19,54.3,24.1,28.5,35.0,-28.8,-99.9,96,34,43,30.48,-32.77,5,-458,9,0.22
2013-1-20,61.1,41.7,26.4,38.1,29.4,24.9,95,68,32,30.22,30.06,18,4,24,0.00
2013-1-21,56.7,39.8,26.1,35.3,27.4,18.0,95,66,34,30.14,29.95,22,5,29,0.00
2013-1-22,41.1,32.3,24.5,18.7,7.7,-1.0,53,37,20,30.27,30.02,18,7,26,0.00
2013-1-23,46.3,34.5,27.9,24.2,14.5,-0.3,71,44,27,30.37,30.14,12,4,19,0.00
2013-1-24,45.4,35.8,26.1,31.7,18.0,6.0,87,53,25,30.43,30.00,27,6,37,0.00
2013-1-25,25.9,23.5,17.6,24.0,17.7,12.0,91,79,64,30.50,30.18,7,2,11,0.00
2013-1-26,40.2,29.8,22.4,37.0,28.3,21.0,97,94,86,30.35,30.15,4,1,6,0.12
2013-1-27,39.3,30.3,20.3,31.0,26.0,19.0,96,85,65,30.62,30.36,5,0,8,0.01
2013-1-28,56.4,41.4,33.3,46.0,37.1,31.0,97,86,68,30.56,30.27,5,1,7,0.01
2013-1-29,71.3,49.6,33.7,59.0,45.1,33.0,99,86,58,30.29,30.07,7,2,14,0.00
2013-1-30,66.7,62.9,58.4,63.0,60.6,56.0,97,92,85,30.09,29.40,18,6,30,1.11
2013-1-31,60.0,42.5,34.9,59.0,30.2,21.0,97,63,44,30.02,29.44,24,11,37,0.09